• En España
  • Lista de países
  • Para 7 días
  • Temperatura del agua
  • Mapa Satelital
  • El tiempo en el mapa
  • Informadores
  • user-avatar
    Iniciar sesión

    Tiempo cada hora Toshtoyal

    Hoy, 23 Octubre, Martes

    Tiempo Temperatura Precipitaciones Viento Presión Humedad
    00:00 +1°C° 0 mm 5 mps 747 mmHg 83%
    01:00 +1°C° 0 mm 5 mps 747 mmHg 87%
    02:00 +1°C° 0 mm 5 mps 746 mmHg 89%
    03:00 +1°C° 0 mm 5 mps 745 mmHg 93%
    04:00 +2°C° 0 mm 5 mps 745 mmHg 93%
    05:00 +2°C° 0 mm 5 mps 745 mmHg 93%
    06:00 +3°C° 0 mm 5 mps 744 mmHg 94%
    07:00 +4°C° 0 mm 6 mps 744 mmHg 93%
    08:00 +4°C° 0 mm 6 mps 743 mmHg 92%
    09:00 +5°C° 0 mm 6 mps 743 mmHg 91%
    10:00 +5°C° 0.4 mm 6 mps 742 mmHg 90%
    11:00 +5°C° 0.4 mm 7 mps 742 mmHg 89%
    12:00 +6°C° 0.4 mm 7 mps 741 mmHg 87%
    13:00 +6°C° 0.7 mm 7 mps 741 mmHg 87%
    14:00 +6°C° 0.7 mm 7 mps 740 mmHg 86%
    15:00 +6°C° 0.7 mm 8 mps 740 mmHg 86%
    16:00 +6°C° 0.5 mm 7 mps 739 mmHg 86%
    17:00 +5°C° 0.5 mm 7 mps 739 mmHg 86%
    18:00 +5°C° 0.5 mm 7 mps 738 mmHg 86%
    19:00 +5°C° 0.4 mm 7 mps 738 mmHg 87%
    20:00 +5°C° 0.4 mm 7 mps 737 mmHg 88%
    21:00 +5°C° 0.4 mm 6 mps 737 mmHg 89%
    22:00 +5°C° 0.2 mm 6 mps 737 mmHg 89%
    23:00 +6°C° 0.2 mm 5 mps 737 mmHg 90%

    Mañana, 24 Octubre, Miércoles

    Tiempo Temperatura Precipitaciones Viento Presión Humedad
    00:00 +6°C° 0.2 mm 4 mps 736 mmHg 91%
    01:00 +5°C° 0 mm 4 mps 736 mmHg 92%
    02:00 +4°C° 0 mm 3 mps 736 mmHg 93%
    03:00 +3°C° 0 mm 3 mps 736 mmHg 94%
    04:00 +3°C° 0 mm 3 mps 736 mmHg 94%
    05:00 +2°C° 0 mm 3 mps 736 mmHg 94%
    06:00 +2°C° 0 mm 3 mps 736 mmHg 94%
    07:00 +3°C° 0 mm 4 mps 736 mmHg 90%
    08:00 +4°C° 0 mm 4 mps 736 mmHg 86%
    09:00 +3°C° 0 mm 5 mps 736 mmHg 82%
    10:00 +5°C° 0 mm 5 mps 736 mmHg 77%
    11:00 +6°C° 0 mm 5 mps 736 mmHg 72%
    12:00 +7°C° 0 mm 5 mps 735 mmHg 68%
    13:00 +7°C° 0 mm 5 mps 735 mmHg 68%
    14:00 +7°C° 0 mm 5 mps 735 mmHg 69%
    15:00 +7°C° 0 mm 4 mps 735 mmHg 70%
    16:00 +6°C° 0 mm 4 mps 735 mmHg 73%
    17:00 +6°C° 0 mm 4 mps 735 mmHg 75%
    18:00 +5°C° 0 mm 4 mps 735 mmHg 78%
    19:00 +5°C° 0 mm 4 mps 735 mmHg 78%
    20:00 +5°C° 0 mm 5 mps 735 mmHg 78%
    21:00 +5°C° 0 mm 5 mps 735 mmHg 78%
    22:00 +5°C° 0 mm 5 mps 734 mmHg 79%
    23:00 +5°C° 0 mm 5 mps 734 mmHg 80%

    Pasado mañana, 25 Octubre, Jueves

    Tiempo Temperatura Precipitaciones Viento Presión Humedad
    00:00 +6°C° 0 mm 5 mps 734 mmHg 81%
    01:00 +6°C° 0.5 mm 5 mps 733 mmHg 82%
    02:00 +5°C° 0.5 mm 6 mps 733 mmHg 83%
    03:00 +5°C° 0.5 mm 6 mps 733 mmHg 84%
    04:00 +5°C° 0.5 mm 6 mps 733 mmHg 86%
    05:00 +5°C° 0.5 mm 6 mps 733 mmHg 87%
    06:00 +7°C° 0.5 mm 6 mps 733 mmHg 89%
    07:00 +7°C° 0.4 mm 6 mps 732 mmHg 89%
    08:00 +7°C° 0.4 mm 6 mps 732 mmHg 89%
    09:00 +8°C° 0.4 mm 6 mps 732 mmHg 89%
    10:00 +8°C° 1.2 mm 6 mps 731 mmHg 90%
    11:00 +8°C° 1.2 mm 6 mps 731 mmHg 90%
    12:00 +8°C° 1.2 mm 7 mps 730 mmHg 90%
    13:00 +9°C° 0.4 mm 7 mps 730 mmHg 89%
    14:00 +9°C° 0.4 mm 7 mps 729 mmHg 88%
    15:00 +9°C° 0.4 mm 7 mps 729 mmHg 87%
    16:00 +9°C° 0.3 mm 8 mps 729 mmHg 86%
    17:00 +9°C° 0.3 mm 8 mps 728 mmHg 86%
    18:00 +9°C° 0.3 mm 8 mps 728 mmHg 86%
    19:00 +9°C° 0.4 mm 7 mps 728 mmHg 86%
    20:00 +9°C° 0.4 mm 7 mps 728 mmHg 87%
    21:00 +8°C° 0.4 mm 6 mps 728 mmHg 88%
    22:00 +8°C° 0.3 mm 5 mps 728 mmHg 86%
    23:00 +7°C° 0.3 mm 4 mps 728 mmHg 85%

    26 Octubre, Viernes

    Tiempo Temperatura Precipitaciones Viento Presión Humedad
    00:00 +7°C° 0.3 mm 3 mps 728 mmHg 83%
    01:00 +7°C° 0.1 mm 3 mps 729 mmHg 84%
    02:00 +5°C° 0.1 mm 3 mps 729 mmHg 85%
    03:00 +5°C° 0.1 mm 3 mps 729 mmHg 86%
    04:00 +4°C° 0 mm 4 mps 729 mmHg 86%
    05:00 +4°C° 0 mm 4 mps 729 mmHg 86%
    06:00 +3°C° 0 mm 4 mps 729 mmHg 85%
    07:00 +3°C° 0 mm 5 mps 730 mmHg 84%
    08:00 +3°C° 0 mm 5 mps 730 mmHg 82%
    09:00 +3°C° 0 mm 5 mps 731 mmHg 80%
    10:00 +3°C° 0 mm 5 mps 731 mmHg 78%
    11:00 +3°C° 0 mm 6 mps 731 mmHg 76%
    12:00 +3°C° 0 mm 6 mps 732 mmHg 74%
    13:00 +3°C° 0.1 mm 5 mps 732 mmHg 74%
    14:00 +3°C° 0.1 mm 5 mps 732 mmHg 75%
    15:00 +3°C° 0.1 mm 5 mps 733 mmHg 75%
    16:00 +3°C° 0.1 mm 5 mps 733 mmHg 74%
    17:00 +2°C° 0.1 mm 5 mps 734 mmHg 73%
    18:00 +2°C° 0.1 mm 5 mps 734 mmHg 72%
    19:00 +1°C° 0 mm 5 mps 734 mmHg 74%
    20:00 +1°C° 0 mm 5 mps 735 mmHg 76%
    21:00 0°C° 0 mm 4 mps 735 mmHg 78%
    22:00 0°C° 0 mm 4 mps 735 mmHg 80%
    23:00 -1°C° 0 mm 4 mps 735 mmHg 82%

    27 Octubre, Sábado

    Tiempo Temperatura Precipitaciones Viento Presión Humedad
    00:00 -1°C° 0 mm 4 mps 736 mmHg 84%
    01:00 -1°C° 0 mm 4 mps 736 mmHg 84%
    02:00 -1°C° 0 mm 4 mps 736 mmHg 85%
    03:00 -1°C° 0 mm 4 mps 737 mmHg 85%
    04:00 -2°C° 0 mm 4 mps 737 mmHg 86%
    05:00 -2°C° 0 mm 5 mps 737 mmHg 86%
    06:00 -2°C° 0 mm 5 mps 737 mmHg 87%
    07:00 -1°C° 0 mm 5 mps 737 mmHg 85%
    08:00 -1°C° 0 mm 5 mps 738 mmHg 82%
    09:00 -1°C° 0 mm 6 mps 738 mmHg 80%
    10:00 +1°C° 0 mm 6 mps 738 mmHg 76%
    11:00 +2°C° 0 mm 6 mps 739 mmHg 73%
    12:00 +2°C° 0 mm 6 mps 739 mmHg 69%
    13:00 +2°C° 0 mm 6 mps 740 mmHg 70%
    14:00 +2°C° 0 mm 6 mps 740 mmHg 72%
    15:00 +1°C° 0 mm 6 mps 740 mmHg 73%
    16:00 +1°C° 0 mm 5 mps 741 mmHg 74%
    17:00 0°C° 0 mm 5 mps 741 mmHg 74%
    18:00 0°C° 0 mm 5 mps 742 mmHg 74%
    19:00 0°C° 0 mm 5 mps 742 mmHg 75%
    20:00 -1°C° 0 mm 4 mps 742 mmHg 77%
    21:00 -1°C° 0 mm 4 mps 742 mmHg 78%
    22:00 -1°C° 0 mm 4 mps 742 mmHg 80%
    23:00 -1°C° 0 mm 5 mps 742 mmHg 82%

    28 Octubre, Domingo

    Tiempo Temperatura Precipitaciones Viento Presión Humedad
    00:00 -1°C° 0 mm 5 mps 741 mmHg 84%
    01:00 -1°C° 0 mm 5 mps 741 mmHg 83%
    02:00 -1°C° 0 mm 6 mps 740 mmHg 82%
    03:00 -1°C° 0 mm 7 mps 739 mmHg 81%
    04:00 -1°C° 0.8 mm 7 mps 738 mmHg 82%
    05:00 0°C° 0.8 mm 7 mps 737 mmHg 84%
    06:00 0°C° 0.8 mm 7 mps 736 mmHg 85%
    07:00 +2°C° 0.4 mm 7 mps 736 mmHg 86%
    08:00 +3°C° 0.4 mm 7 mps 736 mmHg 87%
    09:00 +4°C° 0.4 mm 6 mps 736 mmHg 88%
    10:00 +4°C° 0 mm 6 mps 736 mmHg 85%
    11:00 +4°C° 0 mm 6 mps 736 mmHg 82%
    12:00 +5°C° 0 mm 6 mps 736 mmHg 79%
    13:00 +4°C° 0.2 mm 7 mps 737 mmHg 78%
    14:00 +4°C° 0.2 mm 7 mps 737 mmHg 77%
    15:00 +4°C° 0.2 mm 7 mps 737 mmHg 75%
    16:00 +3°C° 0.1 mm 7 mps 738 mmHg 76%
    17:00 +3°C° 0.1 mm 7 mps 739 mmHg 77%
    18:00 +2°C° 0.1 mm 7 mps 739 mmHg 78%
    19:00 +2°C° 0 mm 7 mps 740 mmHg 78%
    20:00 +2°C° 0 mm 7 mps 741 mmHg 79%
    21:00 0°C° 0 mm 7 mps 742 mmHg 80%
    22:00 0°C° 0 mm 7 mps 743 mmHg 80%
    23:00 0°C° 0 mm 7 mps 744 mmHg 80%

    29 Octubre, Lunes

    Tiempo Temperatura Precipitaciones Viento Presión Humedad
    00:00 -1°C° 0 mm 7 mps 745 mmHg 80%
    01:00 -1°C° 0 mm 6 mps 746 mmHg 81%
    02:00 -1°C° 0 mm 6 mps 747 mmHg 81%
    03:00 0°C° 0 mm 5 mps 748 mmHg 82%
    04:00 -1°C° 0 mm 5 mps 749 mmHg 83%
    05:00 -1°C° 0 mm 4 mps 749 mmHg 85%
    06:00 -2°C° 0 mm 4 mps 750 mmHg 86%
    07:00 -2°C° 0 mm 4 mps 751 mmHg 85%
    08:00 -1°C° 0 mm 4 mps 751 mmHg 83%
    09:00 -1°C° 0 mm 4 mps 752 mmHg 81%
    10:00 -1°C° 0 mm 4 mps 753 mmHg 77%
    11:00 0°C° 0 mm 4 mps 753 mmHg 73%
    12:00 +1°C° 0 mm 3 mps 754 mmHg 69%
    13:00 +1°C° 0 mm 3 mps 755 mmHg 70%
    14:00 +2°C° 0 mm 2 mps 755 mmHg 71%
    15:00 +2°C° 0 mm 2 mps 755 mmHg 72%
    16:00 +2°C° 0 mm 2 mps 756 mmHg 74%
    17:00 +3°C° 0 mm 1 mps 756 mmHg 76%
    18:00 +2°C° 0 mm 1 mps 756 mmHg 79%
    19:00 +2°C° 0 mm 1 mps 756 mmHg 80%
    20:00 +2°C° 0 mm 1 mps 757 mmHg 80%
    21:00 +2°C° 0 mm 1 mps 757 mmHg 81%
    22:00 +2°C° 0 mm 1 mps 757 mmHg 82%
    23:00 +2°C° 0 mm 1 mps 757 mmHg 83%
    Mostrar más